DECAYED

DMSP 5D-2 F13 DEB, 42306 (Decayed)

Orbit data source: Space-Track

DMSP 5D-2 F13 DEB, 42306 was space debris in SSO originally from a launch on Fri, 24 Mar 1995 UTC launched from the Air Force Western Test Range (AFWTR). Debris objects in space refer to the collection of defunct objects orbiting the Earth. Examples of debris include non-operational satellites, rocket bodies, and fragments generated from explosions, collisions, or faulty payload assembly.

Not visible in the next 10 days
Identifier
42306, 1995-015HY
Orbit
Decayed
Country
Flag of USUS
Related business
Manufacturer
Unknown
Mission
Decayed spacecraft
Bus & Motor
Unknown
Mass
Unknown
Launch date (UTC)
1995-03-24 (31 years ago)
Launch vehicle
Unknown
Launch site
Air Force Western Test Range (AFWTR)
Object type
Payload
Rocket body
Debris
Shape & HBR
Unknown shape, 0.1 m
Radar Cross Section
Small (<0.1 m²)

Expand to show TLE details & history
Last TLE update: 3 months ago

TLE from 3 months ago
0 DMSP 5D-2 F13 DEB
1 42306U 95015HY  25249.99902400  .01008727  00000-0  25237-1 0  9995
2 42306  98.6534 338.2067 0014322 276.1932  83.7677 15.37524032525386
Epoch: 2025-09-06T23:58Z
TLE epoch observation values (Epoch: 2025-09-06T23:58:35.673Z)
Latitude
-0.00004°
Longitude
-7.76673°
Altitude
455.46 km
Speed
7.64 km/s
True Right ascension
22h 32m 49s
True Declination
0° 00' 00"
Sunlit
Object was in full shadow at epoch
Visualization orbit readout
Latitude
Unknown
Longitude
Unknown
Altitude
Unknown
Speed
Unknown
Apparent Right ascension
Unknown
Apparent Declination
Unknown
Sunlit
N/A
Visualization observer readout
Local Sidereal Time
07:39:51
Azimuth
Unknown
Elevation
Unknown
Doppler factor
Unknown
Orbital elements
Apogee altitude
460.214 km
Perigee altitude
440.654 km
Semi-major axis
6,828.571 km
Eccentricity
0.00143
Inclination
98.6534°
RAAN
338.2067°
Arg. of periapsis
276.1932°
True anomaly
83.93088°
Mean anomaly
83.7677°
Eccentric anomaly
83.84929°
Mean motion
3.84635 °/min
Orbital period
93.6 mins
BSTAR
0.025237
Loading maneuver chart data...
Computing Atmospheric mass density...

Documentation

Showing up to 5 results
|